Regional Weather Roundup
Issued by NWS

Home | Current Version | Previous Version | Text Only | Print | Product List | Glossary Off
Versions: 1 2 3 4 5 6 7 8 9 10 11 12 13 14 15 16 17 18 19 20 21 22 23 24 25 26 27 28 29 30 31 32 33 34 35 36 37 38 39 40 41 42 43 44 45 46 47 48 49 50

000
ASUS45 KBOU 311210
RWRCO

WEATHER ROUNDUP FOR COLORADO
NATIONAL WEATHER SERVICE DENVER/BOULDER CO
600 AM MDT FRI JUL 31 2015

NOTE: "FAIR" INDICATES FEW OR NO CLOUDS BELOW 12000 FEET WITH NO
SIGNIFICANT WEATHER AND/OR OBSTRUCTIONS TO VISIBILITY.

COZ001>005-013-030-031-311300-
...NORTHWEST COLORADO...

CITY           SKY/WX    TMP DP  RH WIND       PRES   REMARKS
CRAIG          CLEAR     40  32  73 CALM      30.38R
HAYDEN         CLEAR     52  32  46 SE9       30.39R
MEEKER         CLEAR     44  32  62 NE3       30.39S
MOUNT WERNER   NOT AVBL
STEAMBOAT SPGS NOT AVBL
WALDEN         CLEAR     37  34  87 SE6       30.53R
$$

COZ006>008-011-311300-
...WEST CENTRAL VALLEYS...

CITY           SKY/WX    TMP DP  RH WIND       PRES   REMARKS
GRAND JUNCTION CLEAR     58  28  32 CALM      30.25R
MONTROSE       PTCLDY    59  40  49 S7        30.35R
EAGLE          CLEAR     50  34  53 CALM      30.46R
RIFLE          CLEAR     57  32  38 CALM      30.32S
DELTA          PTCLDY    60  36  40 CALM      30.31R
NUCLA          PTCLDY    61  41  48 E9        30.40S
$$

COZ017>023-064>068-311300-
...SOUTHWEST COLORADO...

CITY           SKY/WX    TMP DP  RH WIND       PRES   REMARKS
DURANGO        CLOUDY    59  57  93 E3        30.42R
CORTEZ         CLEAR     62  57  83 CALM      30.36R
PAGOSA SPRINGS CLOUDY    57  56  95 CALM      30.49S
TELLURIDE      PTCLDY    57  44  62 CALM      30.59S
WOLF CREEK PAS NOT AVBL
$$

COZ009-010-012-014-032>034-037-058>063-311300-
...CENTRAL COLORADO...

CITY           SKY/WX    TMP DP  RH WIND       PRES   REMARKS
ASPEN          CLEAR     52  43  71 SW7       30.47S
BUENA VISTA    CLOUDY    54  47  79 NW8       30.53F
COPPER MTN     NOT AVBL
BERTHOUD PASS  FAIR      43  32  65 MISG      30.85S
COTTONWOOD PAS CLOUDY    55  45  67 W3        30.66S
GUNNISON       PTCLDY    54  43  66 N6        30.52R
KREMMLING      CLEAR     43  32  65 CALM      30.51S
LEADVILLE      CLEAR     41  39  93 CALM      30.65S
MONARCH PASS   CLOUDY    48  41  76 E7        30.89F
SALIDA         PTCLDY    59  51  75 CALM      30.58S
SUNLIGHT       CLEAR     54  41  62 E3        30.71S
WILKERSON PASS PTCLDY    50  39  66 CALM      30.78S
$$

COZ069>075-311300-
...SAN LUIS VALLEY/SANGRE DE CRISTO MOUNTAINS...

CITY           SKY/WX    TMP DP  RH WIND       PRES   REMARKS
ALAMOSA        CLOUDY    54  51  90 CALM      30.48S
LA VETA PASS   CLOUDY    48  43  81 MISG      30.66F
SAGUACHE       CLOUDY    54  48  82 NW6       30.52S
$$

COZ035-036-038>040-311300-
...NORTHERN COLORADO FRONT RANGE...

CITY           SKY/WX    TMP DP  RH WIND       PRES   REMARKS
DENVER INTL AP PTCLDY    61  55  81 W6        30.34R
DMNS CITY PARK   N/A     61  56  82 NE3G9     30.34S
AURORA         PTCLDY    61  53  75 W5        30.37R
FRONT RANGE AP NOT AVBL
ERIE MUNI ARPT NOT AVBL
BOULDER MUN AP NOT AVBL
CENTENNIAL     PTCLDY    61  50  67 W5        30.37R
BROOMFIELD     PTCLDY    63  57  82 CALM      30.36S
FORT COLLINS   CLEAR     59  54  82 N6        30.33S
LONGMONT       NOT AVBL
$$

COZ041-046-047-076>085-087-088-311300-
...PIKES PEAK/PALMER DIVIDE AND SOUTHERN FOOTHILLS...

CITY           SKY/WX    TMP DP  RH WIND       PRES   REMARKS
COLO. SPRINGS  MOCLDY    58  53  84 CALM      30.42R
A. F. ACADEMY  PTCLDY    51  50  95 N7        30.42R
ELLICOTT       PTCLDY   N/A N/A N/A S5        30.40R HAZE
FALCON         NOT AVBL
FORT CARSON    PTCLDY    58  53  85 NW7       30.38R
LIMON          CLEAR     50  50 100 N3        30.36R
MONUMENT HILL  CLEAR     54  50  87 SW7       30.45R
TRINIDAD       PTCLDY    59  54  83 W10       30.37R
$$

COZ042>045-048>051-090-091-311300-
...NORTHEAST COLORADO...

CITY           SKY/WX    TMP DP  RH WIND       PRES   REMARKS
GREELEY ARPT   CLEAR     57  54  88 NW6       30.31R
AKRON          CLEAR     58  55  90 SE7       30.32S
BURLINGTON     CLEAR     60  57  89 CALM      30.31S
WRAY           CLEAR    N/A N/A N/A SW5       30.28S
STERLING       NOT AVBL
HOLYOKE        NOT AVBL
FORT MORGAN    CLEAR     57  55  91 E8        30.31R
$$

COZ086-089-092>099-311300-
...SOUTHEAST COLORADO...

CITY           SKY/WX    TMP DP  RH WIND       PRES   REMARKS
PUEBLO         PTCLDY    63  57  81 W5        30.32R
LA JUNTA       PTCLDY    63  61  93 NW7       30.27R
LAMAR          PTCLDY    66  64  93 NE3       30.25R FOG
SPRINGFIELD      N/A     63  63 100 SW7       30.30S
$$


USA.gov is the U.S. government's official web portal to all federal, state and local government web resources and services.